Lid_Strength_Index
4 5 4 4 3 2 3 2 3 2 2 3 2 2 1 1 1 1 3 3 3 3 4 4 4 4 4 3 3 2 2 2 4 4 3 4 3 2 2 3 1 0 0
5 5 5 4 3 4 3 3 3 3 3 3 2 2 2 1 2 1 2 1 3 3 3 3 3 3 4 3 2 3 2 2 3 5 5 3 3 4 4 4 2 0 0
5 6 6 6 5 5 4 3 3 3 2 2 2 2 2 1 1 1 1 1 2 2 2 2 3 3 3 2 2 2 2 2 3 4 4 5 5 5 4 3 2 1 0
6 6 6 6 6 6 5 4 3 2 1 1 1 1 1 1 1 2 1 1 2 2 2 1 3 2 2 2 2 2 2 3 5 5 6 6 6 5 3 4 4 3 2
6 7 6 6 5 4 4 3 3 2 2 1 1 1 1 1 1 3 1 2 2 2 2 1 1 1 1 2 2 3 4 5 5 6 6 6 6 6 6 4 4 4 3
6 6 5 4 3 3 4 4 4 3 3 2 2 1 2 1 3 4 3 2 1 2 3 2 1 2 2 4 4 4 3 5 7 7 7 7 7 5 4 4 5 5 5
6 5 4 4 4 5 5 5 5 6 4 4 3 2 2 2 4 5 4 1 2 2 2 2 2 1 2 1 5 5 5 5 3 5 5 5 5 4 4 4 5 4 5
5 4 4 4 5 5 5 6 6 6 6 5 4 3 3 1 4 5 5 2 2 2 1 1 2 2 2 3 3 4 5 5 4 4 4 4 3 3 2 3 4 5 5
5 5 5 5 5 5 6 6 7 7 7 6 5 5 4 2 4 5 5 2 2 2 1 1 2 2 7 8 4 5 5 5 4 5 5 6 6 6 4 4 5 6 7
6 6 6 6 7 7 7 7 7 7 6 6 6 6 5 3 4 6 6 2 3 2 2 1 4 3 7 7 4 4 5 4 3 4 4 5 6 6 7 4 5 6 6
7 7 7 7 8 7 8 7 7 7 6 6 6 6 6 5 4 6 6 3 2 2 2 2 2 6 8 8 6 4 5 4 4 4 4 5 5 5 5 5 5 4 5
9 9 9 9 9 9 9 9 8 8 7 7 7 8 6 6 5 6 6 6 4 2 2 2 2 6 7 9 8 7 8 7 4 4 5 5 6 6 6 5 4 3 2
12 12 12 11 10 10 11 11 10 9 8 7 7 8 7 7 6 6 7 7 6 3 2 3 5 7 8 7 7 8 8 5 4 5 5 5 5 5 6 5 4 3 3
14 14 13 13 12 12 11 11 10 10 10 8 8 7 7 7 7 6 5 5 6 6 6 6 5 5 6 5 5 6 5 5 4 3 5 4 6 6 6 6 5 5 4
15 15 14 13 13 12 11 10 11 10 10 10 8 7 8 8 7 7 7 7 7 7 7 7 6 5 4 4 4 5 6 5 4 4 5 6 6 6 6 6 5 5 4
16 15 15 14 13 12 11 10 10 11 11 10 11 10 8 8 8 9 8 9 9 8 7 8 7 5 5 4 4 4 5 6 5 5 5 5 5 6 6 6 5 4 4
16 15 15 14 13 12 12 11 11 10 11 10 11 11 11 10 10 9 9 10 10 8 8 8 8 8 6 4 4 3 4 5 4 4 4 4 5 6 7 6 4 4 4
15 15 14 13 13 13 12 11 11 11 12 12 11 11 11 11 11 11 11 10 9 8 7 8 8 7 7 5 4 4 4 4 4 4 4 4 5 5 5 5 4 4 4
16 15 14 13 13 12 12 12 12 12 12 12 11 11 11 12 12 12 12 10 9 8 8 7 7 6 7 6 4 4 4 4 4 4 4 4 4 5 5 4 5 9 6
15 14 13 14 13 13 12 13 13 12 12 12 12 12 11 12 12 11 11 10 9 8 7 8 7 5 7 6 5 4 4 5 5 4 4 4 4 4 4 4 3 3 4
14 13 14 13 14 12 12 12 12 12 12 12 11 11 12 11 11 12 11 10 9 8 8 7 7 6 5 6 6 5 5 5 5 4 4 3 4 4 3 3 3 3 3
11 11 11 11 11 9 10 10 10 11 10 11 11 11 13 11 11 10 10 10 9 9 8 7 7 7 5 5 4 4 4 4 4 3 4 4 4 3 3 3 3 3 3
12 12 12 11 11 10 10 10 10 10 10 8 9 10 11 11 10 10 9 9 9 9 8 7 7 7 5 5 3 3 3 3 3 3 4 3 3 3 3 3 3 3 3
13 13 14 14 13 13 12 11 11 12 11 9 8 9 10 10 10 10 9 8 8 8 8 8 7 7 6 4 3 3 3 2 2 3 3 3 3 4 2 3 3 3 3
14 14 15 15 14 13 13 12 12 12 12 12 10 9 9 9 9 9 8 8 8 8 7 7 7 7 6 5 3 3 6 10 4 6 2 2 2 2 2 2 3 3 4
16 15 16 16 16 17 16 14 14 13 13 13 12 11 9 8 8 8 8 8 8 8 7 8 7 6 6 5 5 7 10 10 7 10 3 3 2 2 2 3 3 3 4